| time (UTC) | temp C | wind direction | speed KPH | gust KPH | rain 1hr cm | rain 24hr cm | rain mn cm | humidity % | barometer mb |
| 20260510183053 | 10 | 51 | 1.6 | 4.8 | 0.00 | 0.00 | 0.00 | 75 | 1009.6 |
| 20260510181550 | 10 | 38 | 4.8 | 6.4 | 0.00 | 0.00 | 0.00 | 75 | 1009.8 |
| 20260510174547 | 11 | 32 | 4.8 | 8.0 | 0.00 | 0.00 | 0.00 | 75 | 1010.0 |
| 20260510173050 | 10 | 26 | 6.4 | 9.7 | 0.00 | 0.00 | 0.00 | 75 | 1010.1 |
| 20260510171554 | 11 | 347 | 6.4 | 11.3 | 0.00 | 0.00 | 0.00 | 76 | 1010.4 |
| 20260510170046 | 11 | 351 | 9.7 | 14.5 | 0.00 | 0.00 | 0.00 | 76 | 1010.5 |
| 20260510164558 | 11 | 29 | 9.7 | 14.5 | 0.00 | 0.00 | 0.00 | 76 | 1010.6 |
| 20260510163100 | 11 | 32 | 9.7 | 14.5 | 0.00 | 0.00 | 0.00 | 76 | 1010.7 |
| 20260510161541 | 11 | 46 | 9.7 | 14.5 | 0.00 | 0.00 | 0.00 | 76 | 1010.7 |
| 20260510160041 | 11 | 44 | 11.3 | 14.5 | 0.00 | 0.00 | 0.00 | 75 | 1010.9 |
| 20260510154536 | 11 | 37 | 11.3 | 16.1 | 0.00 | 0.00 | 0.00 | 74 | 1011.0 |
| 20260510153053 | 11 | 27 | 11.3 | 16.1 | 0.00 | 0.00 | 0.00 | 74 | 1011.3 |
| 20260510151535 | 11 | 34 | 11.3 | 14.5 | 0.00 | 0.00 | 0.00 | 72 | 1011.3 |
| 20260510150039 | 11 | 35 | 11.3 | 14.5 | 0.00 | 0.00 | 0.00 | 71 | 1011.4 |
| 20260510144541 | 11 | 37 | 12.9 | 16.1 | 0.00 | 0.00 | 0.00 | 71 | 1011.5 |
| 20260510143036 | 11 | 17 | 12.9 | 19.3 | 0.00 | 0.00 | 0.00 | 73 | 1011.8 |
| 20260510141528 | 11 | 35 | 14.5 | 19.3 | 0.00 | 0.00 | 0.00 | 75 | 1011.8 |
| 20260510140027 | 11 | 44 | 14.5 | 20.9 | 0.00 | 0.00 | 0.00 | 74 | 1011.9 |
| 20260510134526 | 11 | 21 | 16.1 | 20.9 | 0.00 | 0.00 | 0.00 | 75 | 1012.1 |
| 20260510133026 | 11 | 1 | 16.1 | 20.9 | 0.00 | 0.00 | 0.00 | 77 | 1012.0 |
| 20260510131528 | 11 | 25 | 12.9 | 20.9 | 0.00 | 0.00 | 0.00 | 79 | 1012.0 |
| 20260510130023 | 11 | 30 | 14.5 | 20.9 | 0.00 | 0.00 | 0.00 | 81 | 1012.3 |
| 20260510124530 | 11 | 1 | 12.9 | 19.3 | 0.00 | 0.00 | 0.00 | 80 | 1012.3 |
| 20260510123019 | 11 | 34 | 11.3 | 17.7 | 0.00 | 0.00 | 0.00 | 80 | 1012.4 |
| 20260510121519 | 11 | 18 | 11.3 | 20.9 | 0.00 | 0.00 | 0.00 | 79 | 1012.6 |
| 20260510120016 | 11 | 346 | 12.9 | 19.3 | 0.00 | 0.00 | 0.00 | 78 | 1012.7 |
| 20260510114515 | 11 | 3 | 14.5 | 19.3 | 0.00 | 0.00 | 0.00 | 78 | 1012.9 |
| 20260510113014 | 11 | 359 | 11.3 | 19.3 | 0.00 | 0.00 | 0.00 | 77 | 1013.0 |
| 20260510111513 | 11 | 20 | 11.3 | 17.7 | 0.00 | 0.00 | 0.00 | 76 | 1013.2 |
| 20260510110012 | 11 | 17 | 11.3 | 17.7 | 0.00 | 0.00 | 0.00 | 76 | 1013.2 |
| 20260510104510 | 11 | 14 | 12.9 | 22.5 | 0.00 | 0.00 | 0.00 | 75 | 1013.4 |
| 20260510103007 | 12 | 17 | 6.4 | 9.7 | 0.00 | 0.00 | 0.00 | 73 | 1013.6 |
| 20260510101506 | 12 | 3 | 0.0 | 3.2 | 0.00 | 0.00 | 0.00 | 72 | 1014.0 |
| 20260510100003 | 12 | 260 | 1.6 | 9.7 | 0.00 | 0.00 | 0.00 | 73 | 1014.0 |
| 20260510094607 | 11 | 263 | 1.6 | 8.0 | 0.00 | 0.00 | 0.00 | 72 | 1014.0 |
| 20260510093101 | 11 | 309 | 1.6 | 8.0 | 0.00 | 0.00 | 0.00 | 72 | 1014.2 |
| 20260510091555 | 11 | 278 | 1.6 | 11.3 | 0.00 | 0.00 | 0.00 | 73 | 1014.5 |
| 20260510084610 | 11 | 247 | 1.6 | 6.4 | 0.00 | 0.00 | 0.00 | 73 | 1014.4 |
| 20260510083050 | 11 | 227 | 4.8 | 9.7 | 0.00 | 0.00 | 0.00 | 73 | 1014.4 |
| 20260510081553 | 11 | 227 | 4.8 | 12.9 | 0.00 | 0.00 | 0.00 | 74 | 1014.6 |
| 20260510080049 | 10 | 219 | 3.2 | 9.7 | 0.00 | 0.00 | 0.00 | 75 | 1014.5 |
| 20260510074542 | 10 | 176 | 6.4 | 9.7 | 0.00 | 0.00 | 0.00 | 76 | 1014.6 |
| 20260510073039 | 10 | 252 | 3.2 | 12.9 | 0.00 | 0.00 | 0.00 | 77 | 1014.8 |
| 20260510071540 | 8 | 226 | 4.8 | 11.3 | 0.00 | 0.00 | 0.00 | 78 | 1014.8 |
| 20260510070038 | 8 | 216 | 4.8 | 9.7 | 0.00 | 0.00 | 0.00 | 78 | 1015.0 |
| 20260510064531 | 8 | 204 | 3.2 | 8.0 | 0.00 | 0.00 | 0.00 | 78 | 1015.0 |
| 20260510063029 | 7 | 217 | 0.0 | 4.8 | 0.00 | 0.00 | 0.00 | 78 | 1015.3 |
| 20260510061526 | 7 | 169 | 3.2 | 6.4 | 0.00 | 0.00 | 0.00 | 78 | 1015.3 |
| 20260510060024 | 7 | 165 | 1.6 | 4.8 | 0.00 | 0.00 | 0.00 | 78 | 1015.3 |
| 20260510054523 | 7 | 156 | 0.0 | 3.2 | 0.00 | 0.00 | 0.00 | 78 | 1015.4 |
| 20260510053024 | 7 | 160 | 0.0 | 3.2 | 0.00 | 0.00 | 0.00 | 78 | 1015.7 |
| 20260510051519 | 7 | 139 | 0.0 | 6.4 | 0.00 | 0.00 | 0.00 | 78 | 1015.8 |
| 20260510050016 | 7 | 156 | 1.6 | 4.8 | 0.00 | 0.00 | 0.00 | 78 | 1015.8 |
| 20260510044527 | 7 | 162 | 1.6 | 6.4 | 0.00 | 0.00 | 0.00 | 78 | 1016.1 |
| 20260510043013 | 6 | 117 | 3.2 | 4.8 | 0.00 | 0.00 | 0.00 | 78 | 1016.2 |
| 20260510041512 | 6 | 158 | 1.6 | 3.2 | 0.00 | 0.00 | 0.00 | 78 | 1016.6 |
| 20260510040011 | 6 | 144 | 0.0 | 1.6 | 0.00 | 0.00 | 0.00 | 78 | 1016.7 |
| 20260510034508 | 6 | 157 | 0.0 | 1.6 | 0.00 | 0.00 | 0.00 | 78 | 1016.7 |
| 20260510033007 | 6 | 148 | 0.0 | 1.6 | 0.00 | 0.00 | 0.00 | 78 | 1016.7 |
| 20260510031505 | 5 | 195 | 0.0 | 1.6 | 0.00 | 0.00 | 0.00 | 78 | 1016.8 |
| 20260510030003 | 5 | 153 | 0.0 | 1.6 | 0.00 | 0.00 | 0.00 | 78 | 1016.9 |
| 20260510024502 | 5 | 146 | 0.0 | 1.6 | 0.00 | 0.00 | 0.00 | 78 | 1017.1 |
| 20260510023100 | 5 | 203 | 0.0 | 3.2 | 0.00 | 0.00 | 0.00 | 77 | 1017.3 |
| 20260510021601 | 5 | 167 | 1.6 | 4.8 | 0.00 | 0.00 | 0.00 | 78 | 1017.3 |
| 20260510020057 | 6 | 174 | 3.2 | 6.4 | 0.00 | 0.00 | 0.00 | 77 | 1017.4 |
| 20260510014555 | 6 | 162 | 1.6 | 4.8 | 0.00 | 0.00 | 0.00 | 77 | 1017.6 |
| 20260510013052 | 5 | 179 | 1.6 | 4.8 | 0.00 | 0.00 | 0.00 | 77 | 1017.8 |
| 20260510011550 | 6 | 205 | 1.6 | 3.2 | 0.00 | 0.00 | 0.00 | 77 | 1018.0 |
| 20260510010048 | 6 | 211 | 1.6 | 4.8 | 0.00 | 0.00 | 0.00 | 77 | 1018.2 |
| 20260510004545 | 5 | 203 | 1.6 | 1.6 | 0.00 | 0.00 | 0.00 | 77 | 1018.5 |
| 20260510003043 | 5 | 176 | 0.0 | 1.6 | 0.00 | 0.00 | 0.00 | 77 | 1018.8 |
| 20260510001544 | 5 | 203 | 0.0 | 3.2 | 0.00 | 0.00 | 0.00 | 76 | 1018.9 |
| 20260510000058 | 5 | 218 | 0.0 | 1.6 | 0.00 | 0.00 | 0.00 | 76 | 1019.4 |
| 20260509234548 | 5 | 226 | 0.0 | 1.6 | 0.00 | 0.00 | 0.00 | 75 | 1019.5 |
| 20260509233034 | 5 | 240 | 0.0 | 1.6 | 0.00 | 0.00 | 0.00 | 75 | 1019.6 |
| 20260509231531 | 6 | 268 | 0.0 | 3.2 | 0.00 | 0.00 | 0.00 | 74 | 1019.8 |
| 20260509230028 | 6 | 248 | 1.6 | 4.8 | 0.00 | 0.00 | 0.00 | 73 | 1020.0 |
| 20260509224526 | 6 | 226 | 1.6 | 3.2 | 0.00 | 0.00 | 0.00 | 72 | 1020.0 |
| 20260509223023 | 6 | 224 | 0.0 | 3.2 | 0.00 | 0.00 | 0.00 | 71 | 1020.1 |
| 20260509221521 | 6 | 221 | 1.6 | 3.2 | 0.00 | 0.00 | 0.00 | 70 | 1020.3 |
| 20260509220020 | 7 | 216 | 3.2 | 4.8 | 0.00 | 0.00 | 0.00 | 69 | 1020.3 |
| 20260509214526 | 7 | 236 | 1.6 | 3.2 | 0.00 | 0.00 | 0.00 | 68 | 1020.3 |
| 20260509213017 | 7 | 217 | 0.0 | 1.6 | 0.00 | 0.00 | 0.00 | 69 | 1020.4 |
| 20260509211519 | 7 | 222 | 0.0 | 3.2 | 0.00 | 0.00 | 0.00 | 67 | 1020.3 |
| 20260509210017 | 8 | 222 | 0.0 | 1.6 | 0.00 | 0.00 | 0.00 | 66 | 1020.5 |
| 20260509204523 | 9 | 245 | 0.0 | 1.6 | 0.00 | 0.00 | 0.00 | 65 | 1020.6 |
| 20260509203015 | 10 | 239 | 0.0 | 3.2 | 0.00 | 0.00 | 0.00 | 62 | 1020.5 |
| 20260509201515 | 10 | 251 | 1.6 | 3.2 | 0.00 | 0.00 | 0.00 | 60 | 1020.5 |
| 20260509200014 | 10 | 252 | 1.6 | 4.8 | 0.00 | 0.00 | 0.00 | 57 | 1020.5 |
| 20260509194517 | 11 | 235 | 1.6 | 4.8 | 0.00 | 0.00 | 0.00 | 55 | 1020.6 |
| 20260509193013 | 11 | 263 | 1.6 | 6.4 | 0.00 | 0.00 | 0.00 | 53 | 1020.5 |
| 20260509191518 | 12 | 229 | 1.6 | 6.4 | 0.00 | 0.00 | 0.00 | 52 | 1020.5 |
| 20260509190013 | 12 | 237 | 0.0 | 3.2 | 0.00 | 0.00 | 0.00 | 53 | 1020.4 |
| 20260509184515 | 12 | 244 | 0.0 | 1.6 | 0.00 | 0.00 | 0.00 | 58 | 1020.2 |